リニア彗星

236P/LINEAR (2017)

English version
Home page
Updated on March 3, 2018

---------------------------------------------------------------------

・ プロフィール

・ 写真集

・ 軌道要素

Epoch 2017 Nov. 23.0 TT = JDT 2458080.5
T 2017 Nov. 20.15299 TT                                 MPCW
q   1.8374935            (2000.0)            P               Q
n   0.13662436     Peri.  119.26664     +0.96420918     -0.06809265
a   3.7335098      Node   245.67095     -0.00531005     +0.96130753
e   0.5078375      Incl.   16.33328     +0.26508953     +0.26692925
P   7.21
From 738 observations 2003 Sept. 27-2017 Nov. 22, mean residual 0".6.

・ 光度変化

        m1 = 14.5 + 5 logΔ + 10.0 log r

---------------------------------------------------------------------

軌道要素はM.P.E.C. 2017-X08に掲載されたものです。
光度グラフはComet for Windowsで作成したものです。

---------------------------------------------------------------------

Copyright(C) Seiichi Yoshida (comet@aerith.net). All rights reserved.